DW3200 Weather Reports


time (UTC)temp
F
wind
direction
speed
knots
gust
knots
rain 1hr
in
rain 24hr
in
rain mn
in
humidity
%
barometer
mb
20260508070023 47 288 0.0 0.0 0.00 0.00 0.00 84 1013.1
20260508064546 47 288 0.0 0.0 0.00 0.00 0.00 83 1013.0
20260508063026 48 288 0.0 0.0 0.00 0.00 0.00 82 1013.0
20260508061517 48 288 0.0 0.0 0.00 0.00 0.00 82 1012.9
20260508060015 48 288 0.0 0.0 0.00 0.00 0.00 81 1012.8
20260508054525 48 288 0.0 0.0 0.00 0.00 0.00 81 1012.8
20260508053053 49 288 0.0 0.0 0.00 0.00 0.00 79 1012.8
20260508051552 51 288 0.0 0.0 0.00 0.00 0.00 78 1012.8
20260508050036 51 288 0.0 0.0 0.00 0.00 0.00 76 1012.7
20260508044528 52 288 0.0 0.0 0.00 0.00 0.00 73 1012.7
20260508043008 53 288 0.0 0.0 0.00 0.00 0.00 72 1012.6
20260508041504 54 288 0.0 0.0 0.00 0.00 0.00 70 1012.5
20260508040053 55 288 0.0 0.0 0.00 0.00 0.00 69 1012.4
20260508034546 56 288 0.0 0.0 0.00 0.00 0.00 66 1012.2
20260508033034 57 288 0.0 0.0 0.00 0.00 0.00 63 1012.0
20260508031531 60 288 0.0 0.0 0.00 0.00 0.00 61 1011.9
20260508030032 61 288 0.9 0.0 0.00 0.00 0.00 54 1011.8
20260508024530 63 288 0.0 0.0 0.00 0.00 0.00 53 1011.6
20260508023030 64 288 1.7 0.0 0.00 0.00 0.00 49 1011.4
20260508021530 66 288 2.6 0.0 0.00 0.00 0.00 47 1011.5
20260508020029 67 288 3.5 0.0 0.00 0.00 0.00 45 1011.5
20260508014529 67 290 4.3 0.0 0.00 0.00 0.00 45 1011.5
20260508013026 68 288 4.3 0.0 0.00 0.00 0.00 45 1011.6
20260508011532 68 269 3.5 0.0 0.00 0.00 0.00 44 1011.7
20260508010020 69 289 4.3 0.0 0.00 0.00 0.00 42 1011.8
20260508004506 69 289 4.3 0.0 0.00 0.00 0.00 38 1011.9
20260508003107 69 294 4.3 0.0 0.00 0.00 0.00 38 1011.9
20260508001548 68 297 6.1 0.0 0.00 0.00 0.00 36 1011.8
20260508000105 69 285 5.2 0.0 0.00 0.00 0.00 37 1011.8
20260507234535 69 280 6.1 0.0 0.00 0.00 0.00 36 1011.8
20260507233034 69 304 4.3 0.0 0.00 0.00 0.00 39 1011.7
20260507231510 69 281 5.2 0.0 0.00 0.00 0.00 37 1011.8
20260507230009 69 276 6.1 0.0 0.00 0.00 0.00 41 1011.8
20260507224552 69 281 6.1 0.0 0.00 0.00 0.00 39 1012.0
20260507223051 70 290 3.5 0.0 0.00 0.00 0.00 40 1012.1
20260507221538 69 283 2.6 0.0 0.00 0.00 0.00 40 1012.2
20260507220038 69 294 5.2 0.0 0.00 0.00 0.00 40 1012.3
20260507214539 69 277 4.3 0.0 0.00 0.00 0.00 37 1012.4
20260507213040 68 294 3.5 0.0 0.00 0.00 0.00 40 1012.5
20260507211546 68 306 3.5 0.0 0.00 0.00 0.00 45 1012.7
20260507210034 68 294 0.9 0.0 0.00 0.00 0.00 46 1012.8
20260507204533 68 303 3.5 0.0 0.00 0.00 0.00 45 1012.8
20260507203035 66 305 3.5 0.0 0.00 0.00 0.00 47 1012.9
20260507201516 67 298 0.9 0.0 0.00 0.00 0.00 46 1013.1
20260507200012 66 285 1.7 0.0 0.00 0.00 0.00 44 1013.1
20260507194558 67 271 5.2 0.0 0.00 0.00 0.00 42 1013.2
20260507193101 65 300 5.2 0.0 0.00 0.00 0.00 43 1013.2
20260507191558 65 310 5.2 0.0 0.00 0.00 0.00 42 1013.2
20260507190055 65 309 4.3 0.0 0.00 0.00 0.00 44 1013.3
20260507184553 64 281 4.3 0.0 0.00 0.00 0.00 41 1013.4
20260507183051 64 314 2.6 0.0 0.00 0.00 0.00 43 1013.3
20260507181550 63 281 1.7 0.0 0.00 0.00 0.00 48 1013.5
20260507180050 62 299 2.6 0.0 0.00 0.00 0.00 43 1013.5
20260507174544 63 291 0.9 0.0 0.00 0.00 0.00 48 1013.4
20260507173029 63 281 0.9 0.0 0.00 0.00 0.00 50 1013.3
20260507171509 62 281 0.9 0.0 0.00 0.00 0.00 53 1013.4
20260507170008 61 289 3.5 0.0 0.00 0.00 0.00 55 1013.7
20260507164553 60 309 2.6 0.0 0.00 0.00 0.00 56 1013.6
20260507163050 61 300 0.9 0.0 0.00 0.00 0.00 55 1013.7
20260507161530 61 300 0.0 0.0 0.00 0.00 0.00 59 1013.7
20260507160037 60 300 0.0 0.0 0.00 0.00 0.00 60 1013.8
20260507154512 57 300 0.0 0.0 0.00 0.00 0.00 66 1013.9
20260507153013 56 300 0.9 0.0 0.00 0.00 0.00 67 1013.9
20260507151558 55 300 1.7 0.0 0.00 0.00 0.00 72 1014.0
20260507150052 54 300 0.0 0.0 0.00 0.00 0.00 77 1014.0
20260507144534 53 300 0.0 0.0 0.00 0.00 0.00 80 1014.0
20260507143033 53 300 0.0 0.0 0.00 0.00 0.00 81 1013.8
20260507141515 52 300 0.0 0.0 0.00 0.00 0.00 84 1013.6
20260507140027 48 300 0.0 0.0 0.00 0.00 0.00 87 1013.5
20260507134501 46 300 0.0 0.0 0.00 0.00 0.00 87 1013.2
20260507133106 46 300 0.0 0.0 0.00 0.00 0.00 86 1013.1
20260507131620 45 300 0.0 0.0 0.00 0.00 0.00 86 1012.9
20260507130105 45 300 0.0 0.0 0.00 0.00 0.00 86 1012.8
20260507124601 44 300 0.0 0.0 0.00 0.00 0.00 86 1012.7
20260507123102 44 300 0.0 0.0 0.00 0.00 0.00 85 1012.6
20260507121554 44 300 0.0 0.0 0.00 0.00 0.00 85 1012.5
20260507120051 45 300 0.0 0.0 0.00 0.00 0.00 85 1012.5
20260507114533 45 300 0.0 0.0 0.00 0.00 0.00 85 1012.3
20260507113100 45 300 0.9 0.0 0.00 0.00 0.00 85 1012.3
20260507111515 45 300 0.0 0.0 0.00 0.00 0.00 87 1012.1
20260507110015 45 300 0.0 0.0 0.00 0.00 0.00 87 1012.2
20260507104606 45 300 0.0 0.0 0.00 0.00 0.00 85 1012.2
20260507103053 47 300 0.0 0.0 0.00 0.00 0.00 86 1012.3
20260507101534 47 300 0.0 0.0 0.00 0.00 0.00 86 1012.4
20260507100042 48 300 0.0 0.0 0.00 0.00 0.00 86 1012.3
20260507094513 48 300 0.9 0.0 0.00 0.00 0.00 86 1012.1
20260507093010 49 300 0.0 0.0 0.00 0.00 0.00 84 1011.9
20260507091550 50 300 0.0 0.0 0.00 0.00 0.00 85 1012.1
20260507090047 50 300 0.0 0.0 0.00 0.00 0.00 85 1011.8
20260507084545 51 300 0.0 0.0 0.00 0.00 0.00 84 1011.9
20260507083027 51 300 0.0 0.0 0.00 0.00 0.00 84 1011.8
20260507081507 52 300 0.0 0.0 0.00 0.00 0.00 84 1011.7
20260507080006 51 300 0.0 0.0 0.00 0.00 0.00 84 1011.7
20260507074548 51 300 0.0 0.0 0.00 0.00 0.00 84 1011.6
20260507073046 52 300 0.0 0.0 0.00 0.00 0.00 83 1011.6
20260507071529 53 300 0.0 0.0 0.00 0.00 0.00 83 1011.5